Orbital Elements at Epoch 2459000.5 (2020-May-31.0) TDB
Reference: JPL 19 (heliocentric ecliptic J2000)
Element | Value | Uncertainty (1-sigma) | Units |
e | .182835815414116 | 4.9583e-08 | |
a | 2.461418352942219 | 1.0111e-08 | au |
q | 2.011382921306758 | 1.2169e-07 | au |
i | 3.084937264095985 | 3.5792e-06 | deg |
node | 123.3847933351799 | 0.00011472 | deg |
peri | 297.6774107247711 | 0.00011583 | deg |
M | 135.2429800624317 | 1.5558e-05 | deg |
tp | 2458470.606234715342 (2018-Dec-18.10623472) | 6.083e-05 | TDB |
period | 1410.511328679804 3.86 | 8.6912e-06 2.38e-08 | d yr |
n | .2552265924279737 | 1.5726e-09 | deg/d |
Q | 2.91145378457768 | 1.196e-08 | au |
|
| | Orbit Determination Parameters
Additional Information
|